Location: Unspecified
(0.0000°N, 0.0000°E)
Time: 07:51:56
(UTC+00:00)

LightSail 2 - Visible Passes

Search period start: 03 April 2020 00:00
Search period end: 13 April 2020 00:00
Orbit: 693 x 725 km, 24.0° (Epoch: 02 April)

Date Brightness Start Highest point End Pass type
(mag) Time Alt. Az. Time Alt. Az. Time Alt. Az.
03 Apr 7.1 04:15:29 17° N 04:15:29 17° N 04:17:48 10° NNE visible
11 Apr 7.0 19:17:09 10° SSW 19:20:08 15° SSE 19:20:08 15° SSE visible
12 Apr 7.3 18:19:05 10° S 18:20:38 11° SSE 18:22:09 10° SE visible
12 Apr 7.1 20:01:45 10° SW 20:03:38 20° SSW 20:03:38 20° SSW visible
